User: anonymous   Login
Location: Lafig�re
(44.4503°N, 4.0357°E)
Time: 05:47:32
(UTC+00:00)
Language:

Cosmos 1655 Rocket - Orbit

View from above orbital plane
View from above orbital plane
View from above satellite
View from above satellite

Ground track
Ground track

The orbit data is extracted from the following two-line orbital elements,

1 15752U 85041B   20339.07756683  .00000079  00000-0  69207-4 0  9991
2 15752  82.9500  92.7626 0023718 206.9581 153.0344 13.73113977779588
Epoch (UTC): 04 December 2020 01:51:41
Eccentricity: 0.0023718
inclination: 82.9500°
perigee height: 971 km
apogee height: 1006 km
right ascension of ascending node: 92.7626°
argument of perigee: 206.9581°
revolutions per day: 13.73113977
mean anomaly at epoch: 153.0344°
orbit number at epoch: 77958

The dashed part of the orbit path shows where the satellite is in the earth's shadow,  

DLR